COOK1: Arkansas River Nr Coolidge, KS

                                SHEF ID:       COOK1     ARKANSAS R NR COOLIDGE, KS
STATION TYPE:
Regulating: Stage = 8.00, Flow = 2050

PRECIP STAGE STAGE(2) RIV-FLOW WTR-TEMP CONDUCT BAT-LOAD
in ft ft cfs F umho/cm volt
Ccp-Rev Ccp-Rev Ccp-Rev Ccp-Rev Ccp-Rev Ccp-Rev Ccp-Rev
(America/Chicago)
06/29 00:00 0.00 2.40 2.52 46 78.31 6116 12.95
06/29 01:00 0.00 2.42 2.52 47 77.36 6133 12.95
06/29 02:00 0.00 2.40 2.51 46 75.60 6154 12.89
06/29 03:00 0.00 2.39 2.50 45 73.94 6167 12.89
06/29 04:00 0.00 2.39 2.52 45 72.52 6176 12.89
06/29 05:00 0.00 2.40 2.50 46 71.65 6185 12.89
06/29 06:00 0.00 2.37 2.50 44 70.95 6206 12.83
06/29 07:00 0.00 2.39 2.49 45 70.43 6235 12.83
06/29 08:00 0.00 2.38 2.52 44 70.36 6275 12.83
06/29 09:00 0.00 2.38 2.52 44 70.57 6318 13.07
06/29 10:00 0.00 2.39 2.52 45 72.07 6316 13.30
06/29 11:00 0.00 2.39 2.51 45 74.01 6307 13.53
06/29 12:00 0.00 2.39 2.51 45 76.53 6302 13.71
06/29 13:00 0.00 2.40 2.53 46 78.49 6311 13.65
06/29 14:00 0.00 2.37 2.50 44 81.18 6332 13.71
06/29 15:00 0.00 2.39 2.50 45 82.47 6358 13.71
06/29 16:00 0.00 2.37 2.50 44 83.52 6377 13.30
06/29 17:00 0.00 2.37 2.50 44 84.51 6401 13.53
06/29 18:00 0.00 2.37 2.49 44 83.59 6422 13.36
06/29 19:00 0.00 2.37 2.50 44 82.08 6439 13.18
06/29 20:00 0.00 2.35 2.47 42 80.11 6458 13.18
06/29 21:00 0.00 2.36 2.48 43 77.83 6453 13.12
06/29 22:00 0.00 2.35 2.46 42 76.26 6458 13.00
06/29 23:00 ---- ---- ---- ---- ---- ---- ----
Data processed at Sun 30Jun2024 04:30 GMT

Parsing this webpage?

Checkout our new Data API! CWMSDataAPI (CDA)

Timeseries IDs (TSIDs)

TSIDs used from left to right in the data table
COOL.Precip-Inc.Total.1Hour.1Hour.Ccp-Rev
COOL.Stage.Inst.1Hour.0.Ccp-Rev
COOL.Stage-Alt.Inst.1Hour.0.Ccp-Rev
COOL.Flow.Inst.1Hour.0.Ccp-Rev
COOL.Temp-Water.Inst.1Hour.0.Ccp-Rev
COOL.Cond.Inst.1Hour.0.Ccp-Rev
COOL.Volt-Battery Load.Inst.1Hour.0.Ccp-Rev

                            

All information presented herein is the property of the government of the United States of America and may be revised or deleted at any time without prior notice. Dissemination of this information without the expressed written consent of the Public Affairs Office, Tulsa District U.S. Army Corps of Engineers is strictly prohibited. These data are gathered electronically and, as presented, have NOT undergone any form of quality control. These data are NOT guaranteed to be valid or correct.